"Pseudo-MPEC" for P11Y2EC

Created 2024 Sep 5 21:22:19 UT using Find_Orb

Click here for an explanation of pseudo-MPECs

 
 Astrometry: 
     P11Y2EC* C2024 09 05.25290917 39 22.122+06 43 08.48   ~957q 21.34wXNEOCPF51
     P11Y2EC  C2024 09 05.26223417 39 22.241+06 43 04.23   ~957q 21.51wXNEOCPF51
     P11Y2EC  C2024 09 05.27173017 39 22.413+06 43 01.10   ~957q 21.40wXNEOCPF51

Station data:
(F51) Pan-STARRS 1, Haleakala  (N20.707234 W156.255910)  US/Hawaii.
   Observers J. Bulger, T. Lowe, A. Schultz, M. Willman. Measurers K.
   Chambers, S. Chastel, T. de Boer, L. Denneau, J. Fairlamb, H. Flewelling,
   M. Huber, C.-C. Lin, E. Magnier, Y. Ramanjooloo, R. Wainscoat, R. Weryk.
   1.8-m Ritchey-Chrétien + CCD.

Orbital elements:  P11Y2EC
   Perihelion 2024 Apr 30.07414 +/- 296 TT =  1:46:45 (JD 2460430.57414)
Epoch 2024 Sep  5.0 TT = JDT 2460558.5   Earth MOID: 0.0110   Me: 0.0613
M  11.83903341 +/- 80               (J2000 ecliptic)             AutoNEOCP
n   0.09254605 +/- 0.3              Peri.  240.49531 +/- 60
a   4.84058046 +/- 10.5             Node   283.79456 +/- 53
e   0.9433089 +/- 0.212             Incl.   74.16574 +/- 28
P  10.64992                H 16.76  G  0.15   U 11.9  SR
q 0.27441743 +/- 1.5    Q 9.40674349 +/- 48.4
From 3 observations 2024 Sept. 5 (27.1 min); mean residual 0".23
Residuals in arcseconds: 
240905 F51  .12+  .20+    240905 F51  .25-  .40-    240905 F51  .13+  .19+    

Ephemerides (geocentric):
Date (UTC) HH   RA             Dec           delta  r     elong  mag " sig PA
---- --------  ------------   ------------  ------ ------ -----  --- --------
2024 09 05 21  17 39 33.086   +06 39 07.42  2.0083 2.3875  99.2 21.3  138  99
2024 09 05 22  17 39 33.835   +06 38 51.30  2.0094 2.3880  99.2 21.3  144  99
2024 09 05 23  17 39 34.586   +06 38 35.19  2.0104 2.3885  99.2 21.3  150  99
2024 09 06 00  17 39 35.340   +06 38 19.10  2.0115 2.3891  99.2 21.3  157  99
2024 09 06 01  17 39 36.096   +06 38 03.02  2.0126 2.3896  99.1 21.3  163  99
2024 09 06 02  17 39 36.854   +06 37 46.94  2.0137 2.3901  99.1 21.3  168  99
2024 09 06 03  17 39 37.615   +06 37 30.88  2.0148 2.3906  99.1 21.3  174  99
2024 09 06 04  17 39 38.378   +06 37 14.83  2.0159 2.3912  99.0 21.3  180  99
2024 09 06 05  17 39 39.143   +06 36 58.79  2.0170 2.3917  99.0 21.3  185  99
2024 09 06 06  17 39 39.911   +06 36 42.76  2.0180 2.3922  99.0 21.3  190 100
2024 09 06 07  17 39 40.681   +06 36 26.75  2.0191 2.3927  98.9 21.3  196 100
2024 09 06 08  17 39 41.453   +06 36 10.74  2.0202 2.3933  98.9 21.3  201 100
2024 09 06 09  17 39 42.228   +06 35 54.74  2.0213 2.3938  98.9 21.3  206 100
2024 09 06 10  17 39 43.005   +06 35 38.76  2.0224 2.3943  98.8 21.3  211 100
2024 09 06 11  17 39 43.784   +06 35 22.79  2.0235 2.3948  98.8 21.3  215 100
2024 09 06 12  17 39 44.566   +06 35 06.82  2.0246 2.3954  98.8 21.3  220 100
2024 09 06 13  17 39 45.350   +06 34 50.87  2.0256 2.3959  98.8 21.3  225 101
2024 09 06 14  17 39 46.136   +06 34 34.93  2.0267 2.3964  98.7 21.3  229 101
2024 09 06 15  17 39 46.924   +06 34 19.00  2.0278 2.3969  98.7 21.3  234 101
2024 09 06 16  17 39 47.715   +06 34 03.09  2.0289 2.3975  98.7 21.3  238 101
2024 09 06 17  17 39 48.508   +06 33 47.18  2.0300 2.3980  98.6 21.3  242 101
2024 09 06 18  17 39 49.303   +06 33 31.28  2.0311 2.3985  98.6 21.3  246 101
2024 09 06 19  17 39 50.101   +06 33 15.40  2.0322 2.3990  98.6 21.3  251 101
2024 09 06 20  17 39 50.901   +06 32 59.52  2.0332 2.3996  98.5 21.3  255 102
2024 09 06 21  17 39 51.703   +06 32 43.66  2.0343 2.4001  98.5 21.3  259 102
2024 09 06 22  17 39 52.507   +06 32 27.81  2.0354 2.4006  98.5 21.3  263 102
2024 09 06 23  17 39 53.314   +06 32 11.97  2.0365 2.4011  98.4 21.3  267 102
2024 09 07 00  17 39 54.123   +06 31 56.13  2.0376 2.4017  98.4 21.4  270 102
2024 09 07 01  17 39 54.934   +06 31 40.32  2.0387 2.4022  98.4 21.4  274 102
2024 09 07 02  17 39 55.747   +06 31 24.51  2.0398 2.4027  98.3 21.4  278 103
2024 09 07 03  17 39 56.563   +06 31 08.71  2.0408 2.4032  98.3 21.4  282 103
2024 09 07 04  17 39 57.381   +06 30 52.92  2.0419 2.4038  98.3 21.4  285 103
2024 09 07 05  17 39 58.201   +06 30 37.15  2.0430 2.4043  98.3 21.4  289 103
2024 09 07 06  17 39 59.023   +06 30 21.38  2.0441 2.4048  98.2 21.4  292 103
2024 09 07 07  17 39 59.848   +06 30 05.63  2.0452 2.4053  98.2 21.4  296 103
2024 09 07 08  17 40 00.675   +06 29 49.89  2.0463 2.4058  98.2 21.4  300 103
2024 09 07 09  17 40 01.504   +06 29 34.16  2.0474 2.4064  98.1 21.4  303 104
2024 09 07 10  17 40 02.336   +06 29 18.44  2.0484 2.4069  98.1 21.4  306 104
2024 09 07 11  17 40 03.169   +06 29 02.73  2.0495 2.4074  98.1 21.4  310 104
2024 09 07 12  17 40 04.005   +06 28 47.03  2.0506 2.4079  98.0 21.4  313 104
2024 09 07 13  17 40 04.843   +06 28 31.34  2.0517 2.4085  98.0 21.4  316 104
2024 09 07 14  17 40 05.683   +06 28 15.66  2.0528 2.4090  98.0 21.4  320 104
2024 09 07 15  17 40 06.526   +06 28 00.00  2.0539 2.4095  97.9 21.4  323 104
2024 09 07 16  17 40 07.371   +06 27 44.35  2.0550 2.4100  97.9 21.4  326 104
2024 09 07 17  17 40 08.218   +06 27 28.70  2.0560 2.4105  97.9 21.4  329 105
2024 09 07 18  17 40 09.067   +06 27 13.07  2.0571 2.4111  97.9 21.4  333 105
2024 09 07 19  17 40 09.918   +06 26 57.45  2.0582 2.4116  97.8 21.4  336 105
2024 09 07 20  17 40 10.772   +06 26 41.84  2.0593 2.4121  97.8 21.4  339 105